Location: Newark
(21.1200°N, 73.4000°E)
Time: 21:08:11
(UTC+00:00)

SR - Pass Details

Date: 28 January 2020
Orbit: 575 x 880 km, 66.7° (Epoch: 23 February)

Event Time Altitude Azimuth Distance (km) Brightness Sun altitude
Rises 16:26:18 0° 228° (SW) 3,317 ? -49.3°
Enters shadow 16:26:59 - 230° (SW) 3,079 ? -49.5°
Reaches altitude 10° 16:28:59 10° 239° (WSW) 2,429 - -49.9°
Maximum altitude 16:33:48 29° 298° (WNW) 1,532 - -51.0°
Drops below altitude 10° 16:38:50 10° 356° (N) 2,526 - -52.2°
Sets 16:41:42 0° 8° (N) 3,473 - -52.9°
